Tracking 28790 objects as of 19-Apr-2024
HD Live streaming from Space Station
objects crossing your sky now

DNEPR 1 R/B

Track DNEPR 1 R/B now!
10-day predictions


NORAD ID: 26550
Int'l Code: 2000-057F
Perigee: 566.7 km
Apogee: 1,365.4 km
Inclination: 64.6 °
Period: 104.2 minutes
Semi major axis: 7337 km
RCS: 9.0785 m2 (large)
Launch date: September 26, 2000
Source: Commonwealth of Independent States (former USSR) (CIS)
Launch site: TYURATAM MISSILE AND SPACE COMPLEX (TTMTR)

Note: This is a ROCKET BODY
Your satellite tracking list
Your tracking list is empty




NASA's NSSDC Master Catalog

Two Line Element Set (TLE):
1 26550U 00057F   24109.53561319  .00001069  00000-0  35408-3 0  9998
2 26550  64.5594 241.0591 0544317 224.1131 131.5283 13.81403189187572
Source of the keplerian elements: AFSPC